STARLINK-32449, 61670

Orbit data source: Space-Track

STARLINK-32449, 61670 is a payload satellite owned by SpaceX/Seattle (US) in LEO that was launched on Sat, 26 Oct 2024 UTC via an FALCON 9 launch vehicle from the Air Force Eastern Test Range (AFETR). Payload-class satellites include a variety of spacecraft equipped with specific instruments for various scientific and technological missions. These include communications satellites like Starlink; space stations such as the ISS; scientific satellites like the Hubble; Earth observation satellites from companies like Planet Labs, Umbra, and HawkEye 360; GPS; miniature CubeSats for education and research; and military/defense satellites.

Loading next visibility...
Identifier
61670, 2024-193K
Orbit
LEO
Last TLE update
11 hours ago
Origin
Manufacturer
SpaceX/Seattle
Mission
Operational Commercial Communications
Bus & Motor
STARLINK V2M, Unknown motor
Mass
730 kg wet, ~700 kg dry
Launch date (UTC)
2024-10-26 (8 months ago)
Launch vehicle
FALCON 9
Launch site
Air Force Eastern Test Range (AFETR)
Object type
Payload
Rocket body
Debris
Shape & HBR
Box + 2 Pan, 29 m
Radar Cross Section
36.964 m², Large (>1 m²)

Expand to show TLE details & history

TLE from 11 hours ago
0 STARLINK-32449
1 61670U 24193K   25191.55210030  .00002230  00000-0  87452-4 0  9990
2 61670  53.1596 135.7593 0001145 109.4775 250.6349 15.30179664 39450
Epoch: 2025-07-10T13:15Z
TLE epoch observation values (Epoch: 2025-07-10T13:15:01.465Z)
Latitude
-0.00009°
Longitude
8.28639°
Altitude
476.436 km
Speed
7.629 km/s
True Right ascension
09h 03m 02s
True Declination
0° 00' 00"
Sunlit
Object was in daylight at epoch
Visualization orbit readout
Latitude
18.68827°
Longitude
20.73927°
Altitude
475.603 km
Speed
7.631 km/s
Apparent Right ascension
06h 36m 59s
Apparent Declination
-24° 00' 51"
Sunlit
Object is in daylight
Visualization observer readout
Local Sidereal Time
12:35:44
Azimuth
250.954° W
Elevation
-14.91°
Doppler factor
1
Orbital elements
Apogee altitude
476.317 km
Perigee altitude
474.748 km
Semi-major axis
6,853.669 km
Eccentricity
0.00011
Inclination
53.1596°
RAAN
135.7593°
Arg. of periapsis
109.4775°
True anomaly
Unknown
Mean anomaly
250.6349°
Eccentric anomaly
Unknown
Mean motion
3.82524 °/min
Orbital period
94.11 mins
BSTAR
0.000087452
Loading maneuver chart data...
Loading SW <> Apogee altitude chart data...
Loading historical data...
Loading historical data...
Loading historical data...
Loading historical data...
Loading historical data...
Loading historical data...
Loading historical data...

STARLINK-32449 Visibility forecast

Observer location: undefined°, undefined°

Span
Click to sort rows by Start time (UTC) header in descending order
Start Az.
Max El. time (UTC)
Max El. Az.
Max El.
End time (UTC)
End Az.
4 mins2025-07-11 00:28:31.806Z289.983° WNW2025-07-11 00:30:31.806Z333.311° NNW21.717°2025-07-11 00:32:31.806Z16.751° NNE
5 mins2025-07-11 05:25:31.806Z331.72° NNW2025-07-11 05:27:31.806Z41.991° NE36.327°2025-07-11 05:30:31.806Z108.764° ESE
4 mins2025-07-11 07:03:31.806Z263.427° W2025-07-11 07:05:31.806Z220.528° SW18.391°2025-07-11 07:07:31.806Z185.884° SSW
5 mins2025-07-11 22:20:31.806Z202.101° SSW2025-07-11 22:22:31.806Z157.754° S34.585°2025-07-11 22:25:31.806Z66.209° ENE
4 mins2025-07-11 23:59:31.806Z295.08° NW2025-07-12 00:00:31.806Z318.529° NNW22.915°2025-07-12 00:03:31.806Z24.585° NE
|